Jackpot

Texas Poker Multi Jackpot System

Kini Telah hadir Jackpot SUPER ROYAL FLUSH

Kini Telah hadir Jackpot 2000 (khusus table VIP keatas).

Ikutilah global jackpot yang tersedia di system kami, dengan system jackpot terbaru dan pertama di indonesia, anda dapat membeli jackpot dengan harga 100 rupiah saja dan menangkan hadiahnya hingga puluhan juta rupiah.

Jackpot bukanlah suatu keharusan untuk dibeli, namun kami memberikan suatu fitur tambahan untuk member tercinta dari www.nuansapoker.com.

Terdapat tiga pilihan harga jackpot yang bisa anda beli yaitu :100,500,1000 dan 2000(khusus table VIP Keatas) rupiah.

Hadiah dari Multi jackpot system www.nuansapoker.com

  1. full house x 10 harga jackpot yang anda beli.
      (contoh:anda membeli 1000 maka:1000 X10 = 10.000)
  2. four of kind x 250 harga jackpot yang anda beli
      (contoh:anda membeli 1000 maka:1000 X250 = 250.000)
  3. Straight flush x 1200
      (contoh:anda membeli 1000 maka:1000 X1200 = 1.200.000)
  4. Royal flush x 10000 harga jackpot yang anda beli
      (contoh:anda membeli 1000 maka:1000 X10000 = 10.000.000)
  5. SUPER ROYAL FLUSH x 30000 harga jackpot yang anda beli
      (contoh:anda membeli 1000 maka:1000 X30000 = 30.000.000)

Kondisi kartu

  1. full house adalah kondisi kartu dimana kartu anda dan kartu tengah dengan total 7 kartu bisa mendapatkan nilai 5 kartu dengan kombinasi 1 tris(three of kind) dan 1 pair, contoh 3 kartu 10 dan 2 kartu 5
  2. Four of kind adalah kondisi kartu dimana kartu anda dan kartu tengah dengan total 7 kartu bisa mendapatkan nilai 5 kartu dengan kombinasi 4 kartu yang sama jumlah dan 1 kartu apapun juga contoh anda mendapatkan 4 buah kartu angka 3 dan 1 kartu apapun.
  3. Staright flush adalah kondisi kartu dimana kartu anda dan kartu tengah dengan total 7 kartu bisa mendapatkan nilai 5 kartu dengan kombinasi seri / staright dengan kembang yang sama contoh : urutan kartu dari angka 5, 6, 7, 8 , 9 10 dengan kembang yg sama misalnya as hati
  4. Royal flush adalah kondisi kartu dimana kartu anda dan kartu tengah dengan total 7 kartu bisa mendapatkan nilai 5 kartu dengan kombinasi seri / staright dengan kembang yang sama tetapi kartu tersebut haruslah dimulai dari 10. contoh 10, Queen, Jack, King dan aces dengan kembang yang sama
  5. Super Royal flush adalah kondisi kartu dimana Kedua kartu anda digabung dengan 3 kartu pertama meja haruslah royal flush. contoh kartu anda 10,Queen kembang sama dan 3 kartu pertama meja adalah Jack, King dan aces dengan kembang yang sama

Demikian adalah penjelasan dari Multi Jackpot www.nuansapoker.com terima kasih dan selamat bermain salam hoki dari kami

Texas Poker Jackpot Winner

TOP SUPER ROYAL FLUSH
No.TanggalNamaPriceWin
122/09 10:13THEMIN88Super Royal flush15,000,000
222/09 02:24TAUN101Super Royal flush30,000,000
321/09 14:11ROYALJOZZSuper Royal flush60,000,000
421/09 13:43BA_ATIYOSuper Royal flush6,000,000
521/09 12:23B8EKCBJIYMSuper Royal flush3,000,000
TOP ROYAL FLUSH
No.TanggalNamaPriceWin
122/09 14:53ANYA5758Royal flush2,000,000
222/09 14:51V9BOD86Royal flush5,000,000
322/09 14:50VALKASS78Royal flush1,000,000
422/09 14:38CH4NDR4_Royal flush2,000,000
522/09 14:35SUPRI669Royal flush2,000,000
TOP STRAIGHT FLUSH
No.TanggalNamaPriceWin
122/09 14:54DODOW1Straight Flush600,000
222/09 14:53JP_RAJA_KKStraight Flush600,000
322/09 14:51MAUNK22Straight Flush240,000
422/09 14:45RISA69Straight Flush120,000
522/09 14:44B5225A50Straight Flush240,000
LATEST JACKPOT
No.TanggalNamaPriceWin
122/09 14:55MAHESA69Full House2,000
222/09 14:55NDO9_AS_AKFull House1,000
322/09 14:55XMEN94Full House5,000
422/09 14:55BAJODAR4TFull House5,000
522/09 14:55DENNYS26Full House5,000
622/09 14:55KOCOK1993Full House5,000
722/09 14:55YUAN555Full House5,000
822/09 14:55FAUZI_009Full House1,000
922/09 14:55OYENG88Full House2,000
1022/09 14:55BE1F5A26Full House2,000
1122/09 14:55BASENG122Full House500
1222/09 14:55NORAX98Full House5,000
1322/09 14:55KOPASJIBA81Full House1,000
1422/09 14:55B4NYU4LZ4Full House10,000
1522/09 14:55TENTRIFull House2,000
1622/09 14:55CEPLOK85Four Of A Kind500,000
1722/09 14:55CA7373F1Full House10,000
1822/09 14:55AENXXXFull House500
1922/09 14:55TLB3ATZQS7Full House2,000
2022/09 14:55FELICIE8Full House2,000
2122/09 14:55XPLORSFull House10,000
2222/09 14:55TEMPE444Full House2,000
2322/09 14:55MATIPTRENTFull House5,000
2422/09 14:55KEYU99Full House5,000
2522/09 14:55ALIC016Full House5,000
2622/09 14:55AMEEL12Full House5,000
2722/09 14:55FXX1KMKNLXFull House1,000
2822/09 14:55KONTRACTORFull House5,000
2922/09 14:55ABENG79Full House2,000
3022/09 14:55ANDIAPPULFull House10,000
3122/09 14:55A59ROKOK09191Full House2,000
3222/09 14:55A8E50338Full House2,000
3322/09 14:55NINDA90Full House10,000
3422/09 14:55QEONK11Full House2,000
3522/09 14:55PE_MAIFull House1,000
3622/09 14:55IRPASANFour Of A Kind125,000
3722/09 14:55BP889260Full House1,000
3822/09 14:55KAMASEJPFour Of A Kind25,000
3922/09 14:55JANUARYFull House20,000
4022/09 14:55HD020688Full House2,000
4122/09 14:55TANPADOFull House2,000
4222/09 14:55BUNTAT_JPFour Of A Kind125,000
4322/09 14:54JANDAMU88Full House5,000
4422/09 14:54ULASMUNENGFull House2,000
4522/09 14:54INKASARIFull House1,000
4622/09 14:54MV611608Full House10,000
4722/09 14:54PIALAJUBURFull House2,000
4822/09 14:54MATICINAFour Of A Kind50,000
4922/09 14:54BISMA999Four Of A Kind12,500
5022/09 14:54TOMIJPS8Full House20,000

Domino Multi Jackpot System

Ikutilah global jackpot yang tersedia di system kami, dengan system jackpot terbaru dan pertama di indonesia, anda dapat membeli jackpot dengan harga 100 rupiah saja dan menangkan hadiahnya hingga puluhan juta rupiah.

Jackpot bukanlah suatu keharusan untuk dibeli, namun kami memberikan suatu fitur tambahan untuk member tercinta dari www.nuansapoker.com.

Terdapat tiga pilihan harga jackpot yang bisa anda beli yaitu :100,500 dan 1000 rupiah.

Hadiah dari Multi jackpot system www.nuansapoker.com

  1. Murni Kecil x 50 harga jackpot yang anda beli.
      (contoh:anda membeli 1000 maka:1000 X 50 = 50.000)
  2. Murni Besar x 50 harga jackpot yang anda beli
      (contoh:anda membeli 1000 maka:1000 X 50 = 50.000)
  3. BALAK x 100 harga jackpot yang anda beli
      (contoh:anda membeli 1000 maka:1000 X 100 = 100.000)
  4. ENAM DEWA x 6666 harga jackpot yang anda beli
      (contoh:anda membeli 1000 maka:1000 X 6666 = 6.666.000)

Demikian adalah penjelasan dari Multi Jackpot www.nuansapoker.com terima kasih dan selamat bermain salam hoki dari kami

Domino Jackpot Winner

TOP ENAM DEWA
No.TanggalNamaPriceWin
122/09 11:14C4101CD9murni enam666,600
222/09 04:19SEPTIAN009murni enam666,600
322/09 04:05RIYO1510murni enam3,333,000
422/09 03:59KALBET999murni enam3,333,000
522/09 03:49HARDY1984murni enam666,600
TOP BALAK
No.TanggalNamaPriceWin
122/09 14:54DARGO13balak100,000
222/09 14:53FOYA98balak100,000
322/09 14:52COMME1balak100,000
422/09 14:51TRISTEGUH8balak100,000
522/09 14:47SB220918QQbalak10,000
LATEST JACKPOT
No.TanggalNamaPriceWin
122/09 14:55KPN72murni kecil50,000
222/09 14:55GACORIWANmurni besar50,000
322/09 14:54UG9999murni kecil50,000
422/09 14:54MAYZADAlucky9910,000
522/09 14:54DARGO13balak100,000
622/09 14:53MUJURR99murni besar50,000
722/09 14:53FOYA98balak100,000
822/09 14:53MR1H4B243Rmurni kecil50,000
922/09 14:53HERNIAWATIlucky9950,000
1022/09 14:53V1T48RU2IImurni besar5,000
1122/09 14:52HERNIAWATImurni besar50,000
1222/09 14:52COMME1balak100,000
1322/09 14:52NURS98murni besar50,000
1422/09 14:51OROTT88murni kecil25,000
1522/09 14:51TRISTEGUH8balak100,000
1622/09 14:50NISA2702murni kecil50,000
1722/09 14:49KECUBUNG01murni kecil50,000
1822/09 14:49HOLON99murni besar25,000
1922/09 14:48IKKI16murni besar50,000
2022/09 14:48AFFENG369murni kecil25,000
2122/09 14:48GANDAM88murni kecil25,000
2222/09 14:48BAGED92murni kecil5,000
2322/09 14:48SALINGGIH6murni besar25,000
2422/09 14:48LOAX222murni besar25,000
2522/09 14:47RAWABELONGmurni besar50,000
2622/09 14:47RXKING204lucky9925,000
2722/09 14:47SB220918QQbalak10,000
2822/09 14:47ERY02murni besar5,000
2922/09 14:47ARIMBI123murni kecil25,000
3022/09 14:47OROTT88balak50,000
3122/09 14:47KUAS14murni kecil25,000
3222/09 14:47AFFENG369balak50,000
3322/09 14:46TAHAJUD63murni besar50,000
3422/09 14:46RHANNYmurni kecil50,000
3522/09 14:46AND3CAmurni besar50,000
3622/09 14:45BAGONG00murni kecil5,000
3722/09 14:45TELE98balak50,000
3822/09 14:45MALIKY69murni kecil25,000
3922/09 14:44HOKYERGHSmurni besar25,000
4022/09 14:44UCUP2028murni kecil5,000
4122/09 14:44MRSING23murni kecil5,000
4222/09 14:44JUBIE45balak10,000
4322/09 14:44DZK404balak100,000
4422/09 14:43DWBTNI42murni kecil5,000
4522/09 14:42RUJITOmurni besar50,000
4622/09 14:42JHONY_4murni besar5,000
4722/09 14:42DM82997murni besar25,000
4822/09 14:40KUSEN45murni besar25,000
4922/09 14:40NEKERMEN99balak10,000
5022/09 14:40BLACK_OPSbalak100,000

Ceme Multi Jackpot System

Jackpot dilihat dari gabungan kartu pemain dengan kartu bandar. Bandar harus membeli jackpot sebanyak jumlah player yang sedang duduk. Sebagai contoh bila terdapat 3 pemain duduk bermain, dan bandar memutuskan untuk membeli jackpot Rp 1.000, maka pada periode tersebut bandar akan membeli jackpot sebanyak 3xRp1.000 = Rp3.000.

Jackpot bukanlah suatu keharusan untuk dibeli, namun kami memberikan suatu fitur tambahan untuk member tercinta dari www.nuansapoker.com.

Terdapat tiga pilihan harga jackpot yang bisa anda beli yaitu :100,500 dan 1000 rupiah.

Hadiah dari Multi jackpot system www.nuansapoker.com

  1. Murni Kecil x 50 harga jackpot yang anda beli.
      (contoh:anda membeli 1000 maka:1000 X 50 = 50.000)
  2. Murni Besar x 50 harga jackpot yang anda beli
      (contoh:anda membeli 1000 maka:1000 X 50 = 50.000)
  3. BALAK x 200 harga jackpot yang anda beli
      (contoh:anda membeli 1000 maka:1000 X 200 = 200.000)
  4. ENAM DEWA x 6666 harga jackpot yang anda beli
      (contoh:anda membeli 1000 maka:1000 X 6666 = 6.666.000)

Demikian adalah penjelasan dari Multi Jackpot www.nuansapoker.com terima kasih dan selamat bermain salam hoki dari kami

Ceme Jackpot Winner

TOP ENAM DEWA
No.TanggalNamaPriceWin
122/09 14:55YASIN20murni enam6,666,000
222/09 14:43DON1305Hmurni enam6,666,000
322/09 14:43JUKRA20murni enam3,333,000
422/09 14:41IBLIS92murni enam6,666,000
522/09 14:41KALTIM20murni enam666,600
TOP BALAK
No.TanggalNamaPriceWin
122/09 14:55DGYXCOOYbalak20,000
222/09 14:55DOGANNbalak200,000
322/09 14:55PALASARI2balak200,000
422/09 14:54A53G89300balak200,000
522/09 14:54YASIN20balak200,000
LATEST JACKPOT
No.TanggalNamaPriceWin
122/09 14:55DGYXCOOYbalak20,000
222/09 14:55DOGANNbalak200,000
322/09 14:55PODOIJIKmurni kecil50,000
422/09 14:55LAM99murni kecil25,000
522/09 14:55PALASARI2balak200,000
622/09 14:55BANDIT1993murni kecil50,000
722/09 14:55AAAACCC132murni kecil25,000
822/09 14:55YASIN20murni enam6,666,000
922/09 14:55KING_QNmurni kecil50,000
1022/09 14:55BEE089murni kecil50,000
1122/09 14:54TQZTYUImurni kecil25,000
1222/09 14:54WILDANSYAHmurni kecil50,000
1322/09 14:54FAIS1992murni kecil5,000
1422/09 14:54JABLAI03murni kecil50,000
1522/09 14:54A53G89300balak200,000
1622/09 14:54A53G89300murni kecil50,000
1722/09 14:54JAGADTEXASmurni kecil50,000
1822/09 14:54YASIN20balak200,000
1922/09 14:54BADAX22balak20,000
2022/09 14:54YASIN20murni kecil50,000
2122/09 14:54LIONEL73murni kecil5,000
2222/09 14:54YASIN20balak200,000
2322/09 14:54RAJAOVEbalak200,000
2422/09 14:54DOELZ46murni kecil50,000
2522/09 14:54ELAY05murni kecil5,000
2622/09 14:54JORRAN05murni besar50,000
2722/09 14:54PT4DBELANJA77murni besar50,000
2822/09 14:54H9986CDEZ6murni kecil50,000
2922/09 14:53LISHENDmurni besar5,000
3022/09 14:53SENTANmurni kecil50,000
3122/09 14:53RANGGA168murni kecil5,000
3222/09 14:53DOELZ46murni kecil50,000
3322/09 14:53RUDIAN09murni kecil50,000
3422/09 14:53WD999WDmurni kecil25,000
3522/09 14:53SEMANGAT18murni kecil50,000
3622/09 14:53B4L4CK99murni besar50,000
3722/09 14:53A53G89300murni kecil50,000
3822/09 14:53PAYTOKmurni kecil50,000
3922/09 14:53JOKO234murni kecil50,000
4022/09 14:52HOKIBGGOmurni besar50,000
4122/09 14:52PRASE333murni besar5,000
4222/09 14:52CEPET881balak100,000
4322/09 14:52JOEDImurni kecil50,000
4422/09 14:52SENTANmurni besar50,000
4522/09 14:52RUDIAN09murni besar50,000
4622/09 14:52ARDYANRmurni besar50,000
4722/09 14:52WA_ROYAL88murni besar5,000
4822/09 14:52MERAH1910murni kecil50,000
4922/09 14:52RECYMIMImurni kecil25,000
5022/09 14:52RENOVENmurni besar50,000